Location: Casteau
(50.5142°N, 4.0161°E)
Time: 02:10:27
(UTC+00:00)

S-56A Canister/Altair - Pass Details

Date: 10 August 2021
Orbit: 632 x 2500 km, 38.9° (Epoch: 16 September)

Event Time Altitude Azimuth Distance (km) Brightness Sun altitude
Rises 12:13:46 0° 230° (SW) 4,597 11.9 54.5°
Reaches altitude 10° 12:16:41 10° 223° (SW) 3,856 11.7 54.5°
Maximum altitude 12:26:20 41° 158° (SSE) 2,745 11.7 54.1°
Drops below altitude 10° 12:39:07 10° 95° (E) 5,075 11.7 53.5°
Sets 12:43:36 0° 90° (E) 6,164 12.0 53.2°
